Time,TemperatureF,DewpointF,PressureIn,WindDirection,WindDirectionDegrees,WindSpeedMPH,WindSpeedGustMPH,Humidity,HourlyPrecipIn,Conditions,Clouds,dailyrainin,SolarRadiationWatts/m^2,SoftwareType,DateUTC
2013-02-25 00:01:00,14.0,4.0,-100.00,SW,234,0.0,0.0,65,0.00,,,0.00,0.000000,,2013-02-25 07:01:00,
2013-02-25 00:32:00,19.0,3.0,-100.00,NNE,31,10.0,10.0,50,0.00,,,0.00,0.000000,,2013-02-25 07:32:00,
2013-02-25 00:42:00,19.0,3.0,-100.00,NNE,31,10.0,10.0,50,0.00,,,0.00,0.000000,,2013-02-25 07:42:00,
2013-02-25 00:52:00,19.0,3.0,-100.00,NNE,31,10.0,10.0,50,0.00,,,0.00,0.000000,,2013-02-25 07:52:00,
2013-02-25 01:01:00,19.0,3.0,-100.00,NNE,31,10.0,10.0,50,0.00,,,0.00,0.000000,,2013-02-25 08:01:00,
2013-02-25 01:32:00,21.0,4.0,-100.00,NE,36,11.0,16.0,47,0.00,,,0.00,0.000000,,2013-02-25 08:32:00,
2013-02-25 01:42:00,21.0,4.0,-100.00,NE,36,11.0,16.0,47,0.00,,,0.00,0.000000,,2013-02-25 08:42:00,
2013-02-25 01:52:00,21.0,4.0,-100.00,NE,36,11.0,16.0,47,0.00,,,0.00,0.000000,,2013-02-25 08:52:00,
2013-02-25 02:01:00,21.0,4.0,-100.00,NE,36,11.0,16.0,47,0.00,,,0.00,0.000000,,2013-02-25 09:01:00,
2013-02-25 02:32:00,21.0,4.0,-100.00,NE,38,11.0,19.0,46,0.00,,,0.00,0.000000,,2013-02-25 09:32:00,
2013-02-25 02:42:00,21.0,4.0,-100.00,NE,38,11.0,19.0,46,0.00,,,0.00,0.000000,,2013-02-25 09:42:00,
2013-02-25 02:52:00,21.0,4.0,-100.00,NE,38,11.0,19.0,46,0.00,,,0.00,0.000000,,2013-02-25 09:52:00,
2013-02-25 03:01:00,21.0,4.0,-100.00,NE,38,11.0,19.0,46,0.00,,,0.00,0.000000,,2013-02-25 10:01:00,
2013-02-25 03:21:00,20.0,4.0,-100.00,NE,37,8.0,16.0,49,0.00,,,0.00,0.000000,,2013-02-25 10:21:00,
2013-02-25 03:32:00,20.0,4.0,-100.00,NE,37,8.0,16.0,49,0.00,,,0.00,0.000000,,2013-02-25 10:32:00,
2013-02-25 03:42:00,20.0,4.0,-100.00,NE,37,8.0,16.0,49,0.00,,,0.00,0.000000,,2013-02-25 10:42:00,
2013-02-25 03:52:00,20.0,4.0,-100.00,NE,37,8.0,16.0,49,0.00,,,0.00,0.000000,,2013-02-25 10:52:00,
2013-02-25 04:01:00,20.0,4.0,-100.00,NE,37,8.0,16.0,49,0.00,,,0.00,0.000000,,2013-02-25 11:01:00,
2013-02-25 04:22:00,14.0,3.0,-100.00,SSW,197,1.0,11.0,62,0.00,,,0.00,0.000000,,2013-02-25 11:22:00,
2013-02-25 04:32:00,14.0,3.0,-100.00,SSW,197,1.0,11.0,62,0.00,,,0.00,0.000000,,2013-02-25 11:32:00,
2013-02-25 04:42:00,14.0,3.0,-100.00,SSW,197,1.0,11.0,62,0.00,,,0.00,0.000000,,2013-02-25 11:42:00,
2013-02-25 04:52:00,14.0,3.0,-100.00,SSW,197,1.0,11.0,62,0.00,,,0.00,0.000000,,2013-02-25 11:52:00,
2013-02-25 05:01:00,14.0,3.0,-100.00,SSW,197,1.0,11.0,62,0.00,,,0.00,0.000000,,2013-02-25 12:01:00,
2013-02-25 05:22:00,10.0,2.0,-100.00,South,191,2.0,7.0,70,0.00,,,-99.99,0.000000,,2013-02-25 12:22:00,
2013-02-25 05:32:00,10.0,2.0,-100.00,South,191,2.0,7.0,70,0.00,,,-99.99,0.000000,,2013-02-25 12:32:00,
2013-02-25 05:42:00,10.0,2.0,-100.00,South,191,2.0,7.0,70,0.00,,,-99.99,0.000000,,2013-02-25 12:42:00,
2013-02-25 05:54:00,10.0,2.0,-100.00,South,191,2.0,7.0,70,0.00,,,-99.99,0.000000,,2013-02-25 12:54:00,
2013-02-25 06:01:00,10.0,2.0,-100.00,South,191,2.0,7.0,70,0.00,,,-99.99,0.000000,,2013-02-25 13:01:00,
2013-02-25 06:23:00,10.0,3.0,-100.00,SSE,165,4.0,7.0,72,0.00,,,0.00,0.000000,,2013-02-25 13:23:00,
2013-02-25 06:32:00,10.0,3.0,-100.00,SSE,165,4.0,7.0,72,0.00,,,0.00,0.000000,,2013-02-25 13:32:00,
2013-02-25 06:42:00,10.0,3.0,-100.00,SSE,165,4.0,7.0,72,0.00,,,0.00,0.000000,,2013-02-25 13:42:00,
2013-02-25 06:52:00,10.0,3.0,-100.00,SSE,165,4.0,7.0,72,0.00,,,0.00,0.000000,,2013-02-25 13:52:00,
2013-02-25 07:02:00,10.0,3.0,-100.00,SSE,165,4.0,7.0,72,0.00,,,0.00,0.000000,,2013-02-25 14:02:00,
2013-02-25 07:32:00,9.0,2.0,-100.00,South,181,0.0,6.0,73,0.00,,,0.00,0.000000,,2013-02-25 14:32:00,
2013-02-25 07:42:00,9.0,2.0,-100.00,South,181,0.0,6.0,73,0.00,,,0.00,0.000000,,2013-02-25 14:42:00,
2013-02-25 07:52:00,9.0,2.0,-100.00,South,181,0.0,6.0,73,0.00,,,0.00,0.000000,,2013-02-25 14:52:00,
2013-02-25 08:02:00,9.0,2.0,-100.00,South,181,0.0,6.0,73,0.00,,,0.00,0.000000,,2013-02-25 15:02:00,
2013-02-25 08:22:00,15.0,5.0,-100.00,SSE,157,3.0,4.0,63,0.00,,,0.00,83.000000,,2013-02-25 15:22:00,
2013-02-25 08:32:00,15.0,5.0,-100.00,SSE,157,3.0,4.0,63,0.00,,,0.00,83.000000,,2013-02-25 15:32:00,
2013-02-25 08:42:00,15.0,5.0,-100.00,SSE,157,3.0,4.0,63,0.00,,,0.00,83.000000,,2013-02-25 15:42:00,
2013-02-25 08:52:00,15.0,5.0,-100.00,SSE,157,3.0,4.0,63,0.00,,,0.00,83.000000,,2013-02-25 15:52:00,
2013-02-25 09:01:00,15.0,5.0,-100.00,SSE,157,3.0,4.0,63,0.00,,,0.00,83.000000,,2013-02-25 16:01:00,
2013-02-25 09:32:00,31.0,7.0,-100.00,NE,35,4.0,12.0,36,0.00,,,0.00,314.000000,,2013-02-25 16:32:00,
2013-02-25 09:42:00,31.0,7.0,-100.00,NE,35,4.0,12.0,36,0.00,,,0.00,314.000000,,2013-02-25 16:42:00,
2013-02-25 09:52:00,31.0,7.0,-100.00,NE,35,4.0,12.0,36,0.00,,,0.00,314.000000,,2013-02-25 16:52:00,
2013-02-25 10:01:00,31.0,7.0,-100.00,NE,35,4.0,12.0,36,0.00,,,0.00,314.000000,,2013-02-25 17:01:00,
2013-02-25 10:32:00,33.0,6.0,-100.00,NE,53,5.0,13.0,32,0.00,,,-99.99,532.000000,,2013-02-25 17:32:00,
2013-02-25 10:42:00,33.0,6.0,-100.00,NE,53,5.0,13.0,32,0.00,,,-99.99,532.000000,,2013-02-25 17:42:00,
2013-02-25 10:52:00,33.0,6.0,-100.00,NE,53,5.0,13.0,32,0.00,,,-99.99,532.000000,,2013-02-25 17:52:00,
2013-02-25 11:01:00,33.0,6.0,-100.00,NE,53,5.0,13.0,32,0.00,,,-99.99,532.000000,,2013-02-25 18:01:00,
2013-02-25 11:33:00,34.0,9.0,-100.00,North,349,6.0,12.0,35,0.00,,,0.00,684.000000,,2013-02-25 18:33:00,
2013-02-25 11:42:00,34.0,9.0,-100.00,North,349,6.0,12.0,35,0.00,,,0.00,684.000000,,2013-02-25 18:42:00,
2013-02-25 11:52:00,34.0,9.0,-100.00,North,349,6.0,12.0,35,0.00,,,0.00,684.000000,,2013-02-25 18:52:00,
2013-02-25 12:01:00,34.0,9.0,-100.00,North,349,6.0,12.0,35,0.00,,,0.00,684.000000,,2013-02-25 19:01:00,
2013-02-25 12:32:00,39.0,12.0,-100.00,North,7,4.0,8.0,32,0.00,,,0.00,824.000000,,2013-02-25 19:32:00,
2013-02-25 12:42:00,39.0,12.0,-100.00,North,7,4.0,8.0,32,0.00,,,0.00,824.000000,,2013-02-25 19:42:00,
2013-02-25 12:52:00,39.0,12.0,-100.00,North,7,4.0,8.0,32,0.00,,,0.00,824.000000,,2013-02-25 19:52:00,
2013-02-25 13:01:00,39.0,12.0,-100.00,North,7,4.0,8.0,32,0.00,,,0.00,824.000000,,2013-02-25 20:01:00,
2013-02-25 13:22:00,44.0,9.0,-100.00,North,5,5.0,7.0,23,0.00,,,0.00,891.000000,,2013-02-25 20:22:00,
2013-02-25 13:32:00,44.0,9.0,-100.00,North,5,5.0,7.0,23,0.00,,,0.00,891.000000,,2013-02-25 20:32:00,
2013-02-25 13:42:00,44.0,9.0,-100.00,North,5,5.0,7.0,23,0.00,,,0.00,891.000000,,2013-02-25 20:42:00,
2013-02-25 13:52:00,44.0,9.0,-100.00,North,5,5.0,7.0,23,0.00,,,0.00,891.000000,,2013-02-25 20:52:00,
2013-02-25 14:01:00,44.0,9.0,-100.00,North,5,5.0,7.0,23,0.00,,,0.00,891.000000,,2013-02-25 21:01:00,
2013-02-25 14:32:00,43.0,13.0,-100.00,North,6,6.0,7.0,29,0.00,,,0.00,856.000000,,2013-02-25 21:32:00,
2013-02-25 14:42:00,43.0,13.0,-100.00,North,6,6.0,7.0,29,0.00,,,0.00,856.000000,,2013-02-25 21:42:00,
2013-02-25 14:52:00,43.0,13.0,-100.00,North,6,6.0,7.0,29,0.00,,,0.00,856.000000,,2013-02-25 21:52:00,
2013-02-25 15:01:00,43.0,13.0,-100.00,North,6,6.0,7.0,29,0.00,,,0.00,856.000000,,2013-02-25 22:01:00,
2013-02-25 15:32:00,51.0,10.0,-100.00,SSW,193,4.0,10.0,19,0.00,,,0.00,756.000000,,2013-02-25 22:32:00,
2013-02-25 15:42:00,51.0,10.0,-100.00,SSW,193,4.0,10.0,19,0.00,,,0.00,756.000000,,2013-02-25 22:42:00,
2013-02-25 15:52:00,51.0,10.0,-100.00,SSW,193,4.0,10.0,19,0.00,,,0.00,756.000000,,2013-02-25 22:52:00,
2013-02-25 16:01:00,51.0,10.0,-100.00,SSW,193,4.0,10.0,19,0.00,,,0.00,756.000000,,2013-02-25 23:01:00,
2013-02-25 16:32:00,47.0,8.0,-100.00,SSE,149,4.0,12.0,20,-99.99,,,0.00,594.000000,,2013-02-25 23:32:00,
2013-02-25 16:42:00,47.0,8.0,-100.00,SSE,149,4.0,12.0,20,-99.99,,,0.00,594.000000,,2013-02-25 23:42:00,
2013-02-25 16:52:00,47.0,8.0,-100.00,SSE,149,4.0,12.0,20,-99.99,,,0.00,594.000000,,2013-02-25 23:52:00,
2013-02-25 17:01:00,47.0,8.0,-100.00,SSE,149,4.0,12.0,20,-99.99,,,0.00,594.000000,,2013-02-26 00:01:00,
2013-02-25 17:22:00,46.0,8.0,-100.00,SSE,166,2.0,10.0,21,0.00,,,0.00,384.000000,,2013-02-26 00:22:00,
2013-02-25 17:32:00,46.0,8.0,-100.00,SSE,166,2.0,10.0,21,0.00,,,0.00,384.000000,,2013-02-26 00:32:00,
2013-02-25 17:42:00,46.0,8.0,-100.00,SSE,166,2.0,10.0,21,0.00,,,0.00,384.000000,,2013-02-26 00:42:00,
2013-02-25 17:52:00,46.0,8.0,-100.00,SSE,166,2.0,10.0,21,0.00,,,0.00,384.000000,,2013-02-26 00:52:00,
2013-02-25 18:01:00,46.0,8.0,-100.00,SSE,166,2.0,10.0,21,0.00,,,0.00,384.000000,,2013-02-26 01:01:00,
2013-02-25 18:32:00,35.0,4.0,-100.00,SW,235,3.0,11.0,27,0.00,,,0.00,71.000000,,2013-02-26 01:32:00,
2013-02-25 18:42:00,35.0,4.0,-100.00,SW,235,3.0,11.0,27,0.00,,,0.00,71.000000,,2013-02-26 01:42:00,
2013-02-25 18:52:00,35.0,4.0,-100.00,SW,235,3.0,11.0,27,0.00,,,0.00,71.000000,,2013-02-26 01:52:00,
2013-02-25 19:01:00,35.0,4.0,-100.00,SW,235,3.0,11.0,27,0.00,,,0.00,71.000000,,2013-02-26 02:01:00,
2013-02-25 19:32:00,32.0,7.0,-100.00,West,277,0.0,10.0,34,0.00,,,0.00,2.000000,,2013-02-26 02:32:00,
2013-02-25 19:42:00,32.0,7.0,-100.00,West,277,0.0,10.0,34,0.00,,,0.00,2.000000,,2013-02-26 02:42:00,
2013-02-25 19:52:00,32.0,7.0,-100.00,West,277,0.0,10.0,34,0.00,,,0.00,2.000000,,2013-02-26 02:52:00,
2013-02-25 20:01:00,32.0,7.0,-100.00,West,277,0.0,10.0,34,0.00,,,0.00,2.000000,,2013-02-26 03:01:00,
2013-02-25 20:22:00,30.0,9.0,-100.00,SSW,208,3.0,10.0,41,0.00,,,0.00,0.000000,,2013-02-26 03:22:00,
2013-02-25 20:32:00,30.0,9.0,-100.00,SSW,208,3.0,10.0,41,0.00,,,0.00,0.000000,,2013-02-26 03:32:00,
2013-02-25 20:42:00,30.0,9.0,-100.00,SSW,208,3.0,10.0,41,0.00,,,0.00,0.000000,,2013-02-26 03:42:00,
2013-02-25 20:52:00,30.0,9.0,-100.00,SSW,208,3.0,10.0,41,0.00,,,0.00,0.000000,,2013-02-26 03:52:00,
2013-02-25 21:01:00,30.0,9.0,-100.00,SSW,208,3.0,10.0,41,0.00,,,0.00,0.000000,,2013-02-26 04:01:00,
2013-02-25 21:32:00,29.0,11.0,-100.00,SSW,213,3.0,10.0,46,0.00,,,0.00,0.000000,,2013-02-26 04:32:00,
2013-02-25 21:42:00,29.0,11.0,-100.00,SSW,213,3.0,10.0,46,0.00,,,0.00,0.000000,,2013-02-26 04:42:00,
2013-02-25 21:52:00,29.0,11.0,-100.00,SSW,213,3.0,10.0,46,0.00,,,0.00,0.000000,,2013-02-26 04:52:00,
2013-02-25 22:01:00,29.0,11.0,-100.00,SSW,213,3.0,10.0,46,0.00,,,0.00,0.000000,,2013-02-26 05:01:00,
2013-02-25 22:32:00,27.0,11.0,-100.00,South,181,2.0,8.0,51,0.00,,,-99.99,0.000000,,2013-02-26 05:32:00,
2013-02-25 22:43:00,27.0,11.0,-100.00,South,181,2.0,8.0,51,0.00,,,-99.99,0.000000,,2013-02-26 05:43:00,
2013-02-25 22:52:00,27.0,11.0,-100.00,South,181,2.0,8.0,51,0.00,,,-99.99,0.000000,,2013-02-26 05:52:00,
2013-02-25 23:01:00,27.0,11.0,-100.00,South,181,2.0,8.0,51,0.00,,,-99.99,0.000000,,2013-02-26 06:01:00,
2013-02-25 23:32:00,28.0,9.0,-100.00,South,176,5.0,8.0,45,0.00,,,0.00,0.000000,,2013-02-26 06:32:00,
2013-02-25 23:42:00,28.0,9.0,-100.00,South,176,5.0,8.0,45,0.00,,,0.00,0.000000,,2013-02-26 06:42:00,
2013-02-25 23:52:00,28.0,9.0,-100.00,South,176,5.0,8.0,45,0.00,,,0.00,0.000000,,2013-02-26 06:52:00,